contact:dominique.lefevre@mio.osupytheas.fr, maurice.libes@osupytheas.fr
Project:EMSO Ligure-ouest http://www.emso-fr.org/EMSO-France
Sensor Aquadopp, line 13 Serial AQD14315 
DOI : "https://doi.org/10.17882/74513; https://doi.org/10.17882/83244" 
Title:EMSO Ligure Ouest : Data ligne ALBATROSS capteur AQUADOPP - deploiement 2021
Id,Date,Profondeur,Latitude,Longitude,X_East,Y_North,Z_Up,Amplitude_X,Amplitude_Y,Amplitude_Z,Batterie,SoundSpeed,Heading,Pitch,Roll,Pressure,Temperature,Speed,Direction
, , m, degrees North, degrees East, m.s-1, m.s-1,m.s-1, 1, 1, 1, Volt, m.s-1, degree, degree, degree, dbar, degree_C, m.s-1, degree
09,2022-09-25T23:30:00,2000.0,42.79,6.0312,-0.041,0.004,0.006,68.0,60.0,64.0,12.8,1504.7,173.3,-0.7,1.0,1992.493,13.28,0.041,275.6
09,2022-09-26T00:00:00,2000.0,42.79,6.0312,-0.014,-0.003,0.017,59.0,57.0,62.0,12.8,1504.7,175.2,-0.7,1.0,1992.46,13.28,0.014,257.9
09,2022-09-26T00:30:00,2000.0,42.79,6.0312,-0.007,0.006,0.001,63.0,55.0,60.0,12.8,1504.7,172.6,-0.5,1.0,1992.425,13.28,0.009,310.6
09,2022-09-26T01:00:00,2000.0,42.79,6.0312,-0.01,0.014,0.002,64.0,57.0,59.0,12.8,1504.7,172.2,-0.6,1.0,1992.428,13.28,0.017,324.5
09,2022-09-26T02:00:00,2000.0,42.79,6.0312,-0.022,0.017,-0.003,63.0,59.0,59.0,12.8,1504.7,171.8,-0.7,1.0,1992.409,13.28,0.027,307.7
09,2022-09-26T02:30:00,2000.0,42.79,6.0312,-0.023,0.019,0.022,62.0,57.0,60.0,12.8,1504.7,169.4,-0.6,1.0,1992.457,13.28,0.029,309.6
09,2022-09-26T03:00:00,2000.0,42.79,6.0312,-0.027,0.013,0.03,61.0,55.0,59.0,12.8,1504.7,163.8,-0.6,1.0,1992.456,13.28,0.029,295.7
09,2022-09-26T03:30:00,2000.0,42.79,6.0312,-0.019,0.007,-0.002,64.0,57.0,58.0,12.8,1504.7,164.0,-0.6,0.9,1992.421,13.28,0.02,290.2
09,2022-09-26T04:00:00,2000.0,42.79,6.0312,-0.011,-0.001,-0.002,61.0,56.0,59.0,12.8,1504.7,164.0,-0.6,1.0,1992.474,13.28,0.011,264.8
09,2022-09-26T04:30:00,2000.0,42.79,6.0312,0.002,0.01,0.01,61.0,60.0,57.0,12.8,1504.7,161.7,-0.6,1.0,1992.515,13.28,0.01,11.3
09,2022-09-26T05:00:00,2000.0,42.79,6.0312,-0.018,0.007,-0.026,59.0,57.0,62.0,12.8,1504.7,167.2,-0.6,1.0,1992.538,13.28,0.019,291.2
09,2022-09-26T05:30:00,2000.0,42.79,6.0312,-0.01,0.009,-0.013,59.0,55.0,59.0,12.8,1504.7,170.3,-0.6,1.0,1992.555,13.28,0.013,312.0
09,2022-09-26T06:00:00,2000.0,42.79,6.0312,-0.008,0.025,0.018,62.0,63.0,61.0,12.8,1504.7,169.7,-0.6,0.9,1992.587,13.28,0.026,342.3
09,2022-09-26T06:30:00,2000.0,42.79,6.0312,-0.021,0.011,0.016,61.0,57.0,60.0,12.8,1504.7,171.4,-0.6,1.1,1992.588,13.28,0.023,297.6
09,2022-09-26T07:00:00,2000.0,42.79,6.0312,-0.016,-0.011,-0.002,61.0,56.0,62.0,12.8,1504.7,172.3,-0.6,1.0,1992.608,13.28,0.019,235.5
09,2022-09-26T07:30:00,2000.0,42.79,6.0312,-0.008,0.032,-0.005,61.0,61.0,62.0,12.8,1504.7,172.7,-0.6,1.0,1992.63,13.28,0.032,346.0
09,2022-09-26T08:00:00,2000.0,42.79,6.0312,-0.02,0.015,-0.015,62.0,57.0,62.0,12.8,1504.7,171.1,-0.6,1.0,1992.6,13.28,0.025,306.9
09,2022-09-26T08:30:00,2000.0,42.79,6.0312,-0.015,0.008,0.005,60.0,62.0,62.0,12.8,1504.7,172.0,-0.6,1.0,1992.588,13.28,0.017,298.1
09,2022-09-26T09:00:00,2000.0,42.79,6.0312,0.0,-0.003,0.016,64.0,62.0,61.0,12.8,1504.7,175.4,-0.5,1.1,1992.589,13.28,0.003,180.0
09,2022-09-26T09:30:00,2000.0,42.79,6.0312,-0.008,0.007,-0.017,65.0,61.0,62.0,12.8,1504.7,174.1,-0.6,1.1,1992.597,13.28,0.01,311.2
09,2022-09-26T10:00:00,2000.0,42.79,6.0312,0.009,0.02,0.004,63.0,62.0,62.0,12.8,1504.7,175.2,-0.6,1.0,1992.55,13.28,0.021,24.2
09,2022-09-26T10:30:00,2000.0,42.79,6.0312,-0.018,0.025,0.007,68.0,62.0,60.0,12.8,1504.7,176.2,-0.6,1.0,1992.515,13.28,0.03,324.2
09,2022-09-26T11:00:00,2000.0,42.79,6.0312,-0.028,-0.001,-0.023,65.0,60.0,62.0,12.8,1504.7,174.9,-0.6,1.0,1992.474,13.28,0.028,268.0
09,2022-09-26T11:30:00,2000.0,42.79,6.0312,-0.002,0.021,-0.012,64.0,61.0,63.0,12.8,1504.7,180.0,-0.6,1.1,1992.425,13.28,0.021,354.6
09,2022-09-26T12:00:00,2000.0,42.79,6.0312,-0.028,0.02,-0.016,67.0,60.0,68.0,12.8,1504.7,178.4,-0.6,1.1,1992.455,13.28,0.034,305.5
09,2022-09-26T12:30:00,2000.0,42.79,6.0312,0.003,0.001,-0.033,72.0,69.0,73.0,12.8,1504.7,177.3,-0.6,1.1,1992.42,13.28,0.003,71.6
09,2022-09-26T13:00:00,2000.0,42.79,6.0312,0.002,0.024,-0.027,71.0,68.0,72.0,12.8,1504.7,179.2,-0.6,1.0,1992.407,13.28,0.024,4.8
09,2022-09-26T13:30:00,2000.0,42.79,6.0312,-0.004,0.023,-0.031,69.0,68.0,71.0,12.8,1504.7,177.8,-0.6,1.1,1992.373,13.28,0.023,350.1
09,2022-09-26T14:00:00,2000.0,42.79,6.0312,-0.014,0.014,-0.016,72.0,69.0,70.0,12.8,1504.7,175.7,-0.6,1.0,1992.368,13.28,0.019,315.0
09,2022-09-26T15:00:00,2000.0,42.79,6.0312,-0.013,0.033,0.005,72.0,68.0,69.0,12.8,1504.7,175.6,-0.6,1.1,1992.441,13.28,0.035,338.5
09,2022-09-26T15:30:00,2000.0,42.79,6.0312,0.005,0.002,-0.007,69.0,70.0,69.0,12.8,1504.7,176.2,-0.6,1.0,1992.44,13.28,0.005,68.2
09,2022-09-26T16:00:00,2000.0,42.79,6.0312,-0.01,-0.003,0.021,73.0,69.0,73.0,12.8,1504.7,174.9,-0.6,0.9,1992.507,13.28,0.01,253.3
09,2022-09-26T16:30:00,2000.0,42.79,6.0312,-0.03,0.008,-0.014,72.0,66.0,71.0,12.8,1504.7,178.3,-0.6,1.0,1992.489,13.28,0.031,284.9
09,2022-09-26T17:00:00,2000.0,42.79,6.0312,0.0,0.003,-0.006,71.0,71.0,73.0,12.8,1504.7,174.7,-0.5,1.0,1992.538,13.28,0.003,0.0
09,2022-09-26T17:30:00,2000.0,42.79,6.0312,-0.011,0.018,0.006,72.0,67.0,70.0,12.8,1504.7,175.8,-0.6,1.0,1992.545,13.28,0.021,328.6
09,2022-09-26T18:00:00,2000.0,42.79,6.0312,-0.014,0.003,-0.011,70.0,67.0,68.0,12.8,1504.7,173.6,-0.6,1.0,1992.577,13.28,0.014,282.1
09,2022-09-26T18:30:00,2000.0,42.79,6.0312,-0.01,-0.002,-0.022,69.0,69.0,70.0,12.8,1504.7,176.5,-0.6,1.0,1992.658,13.28,0.01,258.7
09,2022-09-26T19:00:00,2000.0,42.79,6.0312,-0.024,0.004,0.004,68.0,70.0,70.0,12.8,1504.7,171.7,-0.6,1.0,1992.623,13.28,0.024,279.5
09,2022-09-26T19:30:00,2000.0,42.79,6.0312,-0.004,0.035,-0.019,70.0,66.0,71.0,12.8,1504.7,175.9,-0.6,1.0,1992.633,13.28,0.035,353.5
09,2022-09-26T20:00:00,2000.0,42.79,6.0312,-0.011,0.01,-0.008,68.0,67.0,71.0,12.8,1504.7,170.3,-0.6,1.0,1992.661,13.28,0.014,312.3
09,2022-09-26T20:30:00,2000.0,42.79,6.0312,-0.03,-0.004,0.014,67.0,62.0,67.0,12.8,1504.7,173.2,-0.6,1.0,1992.608,13.28,0.03,262.4
09,2022-09-26T21:00:00,2000.0,42.79,6.0312,-0.028,0.016,-0.016,68.0,63.0,67.0,12.8,1504.7,176.3,-0.6,1.0,1992.607,13.28,0.032,299.7
09,2022-09-26T21:30:00,2000.0,42.79,6.0312,-0.007,0.018,0.033,65.0,61.0,63.0,12.8,1504.7,172.7,-0.6,1.0,1992.611,13.28,0.019,338.8
09,2022-09-26T22:00:00,2000.0,42.79,6.0312,-0.008,0.012,0.014,65.0,59.0,64.0,12.8,1504.7,172.7,-0.7,1.0,1992.538,13.28,0.014,326.3
09,2022-09-26T22:30:00,2000.0,42.79,6.0312,-0.03,0.019,-0.006,63.0,58.0,63.0,12.8,1504.7,173.1,-0.7,1.0,1992.532,13.28,0.035,302.3
09,2022-09-26T23:00:00,2000.0,42.79,6.0312,-0.03,-0.007,0.013,66.0,57.0,65.0,12.8,1504.7,173.8,-0.6,1.0,1992.516,13.28,0.03,256.9
